Theta_e
330 323 317 312 302 294 290 295 299 301 302 305 307 311 311 313 312 305 331 338 338 338 340 342 346 348 348 347 346 347 347 344 343 343 341 340 338 337 335 337 338 336 335 334 334 334 335 334 334
325 321 314 306 297 288 290 295 299 301 305 308 312 311 310 311 323 330 332 338 337 338 338 340 344 348 348 347 347 346 345 343 342 340 340 339 338 336 336 334 337 339 338 335 334 333 333 333 333
317 320 308 302 294 289 290 298 301 304 306 306 306 311 311 313 326 329 336 338 337 336 337 339 343 347 347 347 346 347 345 344 342 340 339 339 337 336 335 336 338 336 340 335 333 333 333 332 332
310 311 309 297 293 296 296 301 303 304 304 307 308 308 314 322 329 334 338 337 335 335 336 339 344 347 347 347 347 346 345 343 342 340 338 337 337 337 338 337 338 334 336 336 333 332 331 331 330
310 308 300 296 296 297 297 302 304 301 301 302 307 307 312 326 333 337 336 335 332 332 334 338 343 345 346 347 346 346 345 343 343 342 340 340 337 336 336 335 337 336 333 334 334 332 332 331 331
304 305 297 294 295 297 298 303 304 301 302 306 309 310 311 328 333 334 334 331 333 332 334 336 335 339 342 343 344 344 342 343 343 342 341 340 339 338 336 335 336 334 332 331 333 332 331 331 331
303 301 297 296 297 298 301 302 302 302 301 303 312 307 312 322 331 333 332 332 333 334 334 334 334 335 334 338 338 338 340 341 342 342 341 338 338 338 337 336 336 334 333 334 332 333 331 329 329
305 303 297 298 297 297 302 304 306 304 305 311 313 308 309 321 330 332 331 332 332 332 332 331 332 332 332 333 332 333 334 338 338 338 335 332 332 333 333 331 334 337 336 334 333 333 333 332 332
307 298 295 297 299 300 302 303 306 310 309 312 315 312 314 325 329 332 328 329 330 331 331 331 331 331 331 330 329 328 329 332 333 332 329 327 328 328 326 327 330 335 335 335 335 334 334 333 331
300 295 297 304 304 301 302 303 306 307 308 310 315 321 323 325 326 325 326 326 327 328 330 331 331 331 330 332 329 327 329 327 328 329 328 328 326 326 327 323 325 329 330 332 334 334 332 328 324
298 295 299 305 307 307 304 303 306 306 303 310 313 318 322 322 323 323 325 327 328 329 330 331 332 331 329 329 327 326 325 324 324 324 324 326 326 323 323 323 323 322 320 324 326 326 325 323 322
294 299 300 306 307 307 304 305 304 305 306 311 318 323 323 322 323 323 324 324 326 327 330 331 330 331 330 329 327 326 325 324 323 323 324 322 321 321 320 320 321 320 322 320 320 320 321 321 322
296 298 302 304 305 305 306 304 303 304 307 313 319 322 322 323 323 323 325 325 326 326 328 328 329 328 329 328 327 326 325 325 324 324 324 324 322 321 320 320 320 320 320 320 319 319 320 320 321
301 301 299 303 302 304 302 302 303 304 308 314 317 319 320 321 322 322 323 324 326 328 328 329 329 329 329 328 327 328 326 326 325 324 325 325 324 323 322 321 321 320 321 321 321 320 320 320 320
302 296 298 299 300 300 301 295 300 303 306 311 314 315 318 320 321 322 324 324 325 328 329 328 329 330 329 328 328 327 327 328 327 327 326 327 326 324 324 323 322 321 321 321 320 320 320 319 319
296 295 290 297 300 300 296 287 294 299 301 305 307 308 313 317 318 321 322 324 324 326 327 329 331 331 330 330 328 327 327 328 327 327 327 327 328 326 324 324 324 323 322 321 319 319 318 317 317
292 286 289 293 299 299 295 290 296 300 298 300 300 302 304 307 311 316 318 321 322 324 325 325 329 330 330 329 329 328 327 327 328 327 326 327 327 327 326 326 326 324 323 322 321 320 318 317 318
286 287 288 288 295 296 294 293 297 299 299 297 297 297 298 300 302 306 312 315 319 320 322 324 326 329 329 329 328 326 325 325 325 326 327 328 327 327 327 327 326 325 323 322 321 322 324 322 322
291 289 285 290 295 293 292 293 296 298 295 296 297 299 299 300 302 304 304 303 304 307 314 320 321 323 326 323 322 322 324 324 323 324 326 326 328 328 326 326 326 325 326 326 326 325 322 322 323
291 287 285 291 294 291 288 290 292 293 293 295 296 298 298 297 298 299 299 298 300 302 304 305 309 316 324 326 323 324 323 323 324 326 326 327 327 327 327 326 328 328 327 327 325 323 321 321 322
290 288 287 286 291 291 288 285 288 290 293 294 294 295 296 297 297 298 298 297 299 301 302 304 306 308 310 319 320 320 320 319 320 322 324 326 326 327 325 325 328 327 327 325 324 324 322 320 320
288 293 292 290 286 280 286 276 283 286 288 290 293 293 293 294 295 296 296 296 298 299 301 303 305 306 308 310 314 317 318 318 318 320 323 324 326 325 325 323 323 326 326 324 324 324 323 321 319
290 293 292 289 286 283 280 278 281 285 286 288 289 291 292 293 295 296 296 298 300 302 302 303 304 307 308 307 308 312 314 315 316 318 318 319 321 323 324 323 322 324 325 324 324 322 322 321 320
294 291 291 289 283 273 280 278 276 282 286 288 290 291 294 295 295 296 297 300 300 299 299 300 303 301 304 307 306 308 310 312 314 314 314 315 312 308 310 315 319 322 321 322 322 322 322 321 321
292 286 276 273 271 272 280 278 279 285 288 291 293 292 293 295 295 296 297 299 298 297 297 298 298 298 299 300 301 306 309 311 312 312 311 309 305 304 303 305 305 306 306 306 306 307 309 312 314
288 285 278 270 272 275 281 277 282 287 290 292 294 294 294 293 296 296 297 298 297 296 296 296 297 297 298 299 298 299 301 302 302 303 302 303 302 301 301 302 302 303 303 303 304 305 305 305 306
288 283 288 280 273 273 277 281 287 289 290 290 291 293 293 294 296 296 296 296 296 295 295 296 296 296 296 297 297 297 298 300 300 299 300 299 299 300 299 299 299 300 301 301 301 301 301 301 301
289 291 282 280 269 270 275 276 278 284 287 289 290 291 291 294 296 296 296 296 295 294 294 294 295 295 295 295 295 295 296 297 297 297 296 296 296 297 297 297 298 298 298 298 299 299 298 297 298
287 285 286 284 280 275 272 275 282 285 288 288 290 291 292 293 295 297 297 296 295 294 293 293 293 293 294 294 294 294 294 295 295 295 295 295 295 296 296 296 297 297 296 297 296 296 295 295 295
290 287 286 279 277 278 279 278 287 287 289 290 291 293 292 292 293 294 296 295 294 293 292 293 293 293 293 293 293 293 293 293 292 293 293 294 294 295 295 295 295 296 295 294 294 293 294 293 293
Wind_Speed
9 7 3 5 5 6 1 1 1 2 3 2 1 8 8 4 2 3 1 10 16 12 8 9 11 12 14 15 14 13 13 13 13 13 13 13 12 12 11 13 12 13 12 11 11 10 10 9 8
6 3 5 3 5 3 4 1 4 2 4 8 9 5 5 2 3 8 6 12 16 13 8 7 10 11 15 14 14 14 13 13 13 12 12 12 12 12 10 10 7 13 12 11 10 10 9 7 6
5 1 4 4 4 4 5 3 6 2 2 1 5 5 4 3 3 7 11 14 13 10 8 8 10 10 16 15 14 13 12 11 12 12 12 11 11 11 11 10 8 9 10 10 9 9 8 6 5
4 5 5 4 3 3 7 7 5 5 2 5 4 7 2 5 9 7 15 15 13 10 7 10 11 12 14 14 13 12 12 12 12 11 12 11 11 10 8 9 9 9 8 9 8 7 6 4 4
4 3 4 2 2 1 2 6 7 4 3 3 3 3 2 3 7 16 14 12 12 8 7 9 12 11 12 11 11 10 12 12 13 10 10 11 10 9 6 5 7 9 7 7 6 5 5 3 3
5 3 4 1 2 0 2 6 7 5 3 4 6 5 2 4 13 12 11 11 10 10 8 7 10 11 11 10 10 11 8 13 12 12 12 12 12 9 7 5 5 6 7 6 6 5 3 1 1
4 4 3 3 5 3 5 7 8 7 7 3 10 5 1 4 7 10 10 10 9 9 8 6 7 8 10 10 10 9 8 10 11 11 10 9 10 10 9 7 6 6 5 5 5 6 4 2 2
5 4 1 1 6 5 5 4 6 6 4 5 7 7 6 7 9 8 9 10 10 7 7 6 5 5 5 5 8 7 7 10 9 10 9 8 8 7 7 7 8 8 6 5 5 5 6 5 5
3 3 1 2 5 4 3 5 0 2 6 3 2 6 5 13 11 11 6 5 7 8 9 7 7 6 6 6 6 8 8 9 9 8 9 7 4 6 6 6 8 9 8 8 8 8 8 8 7
4 3 5 1 2 5 2 3 7 5 4 3 3 5 8 11 14 13 11 10 10 9 8 9 9 8 7 6 6 6 6 4 5 5 6 4 5 5 6 7 9 9 9 9 9 8 8 7 4
3 5 3 2 2 2 4 3 1 9 2 6 8 9 9 7 9 11 10 11 13 9 7 8 9 9 8 6 4 3 3 3 3 6 5 5 4 4 3 3 3 4 7 4 5 5 4 5 4
2 1 2 1 4 4 2 5 4 4 5 4 12 16 13 11 13 13 11 9 8 8 11 10 8 9 8 5 5 5 4 4 4 5 6 4 3 4 4 3 5 4 4 5 5 3 5 6 6
4 2 3 2 4 3 1 3 2 5 1 3 12 9 11 10 9 5 5 5 6 9 9 8 7 7 8 8 5 5 5 5 5 5 6 5 5 5 4 4 4 4 3 4 4 4 5 5 6
1 2 1 2 2 2 2 2 2 2 3 8 13 10 8 9 10 5 7 9 10 10 10 8 8 7 6 6 6 6 5 5 5 5 6 8 6 5 5 5 5 4 4 4 4 5 5 5 5
1 1 3 2 2 2 2 6 4 2 2 7 7 8 9 11 9 14 13 12 12 11 10 11 11 9 8 7 7 5 5 5 5 6 8 9 9 8 7 6 5 5 4 6 4 5 4 4 4
3 5 2 3 4 1 6 8 3 4 3 7 8 7 8 10 11 11 11 12 11 10 12 11 10 11 10 9 6 5 5 4 5 5 5 8 8 8 7 6 6 5 4 4 4 4 4 4 4
4 4 4 5 1 2 3 6 3 4 3 7 7 7 7 7 7 9 10 12 11 13 12 11 12 12 12 10 7 7 7 6 5 4 4 7 7 8 8 7 7 5 4 4 4 4 4 4 5
7 4 4 5 2 1 3 8 6 5 5 5 7 7 7 8 8 6 6 6 6 8 9 9 10 11 11 7 4 3 3 4 4 5 6 6 5 7 7 6 7 5 4 4 4 6 4 4 4
6 4 4 2 1 2 4 7 8 8 5 9 8 9 9 9 4 5 3 3 5 5 5 8 8 8 6 3 3 2 6 4 4 4 6 7 8 6 6 5 6 6 7 8 7 4 5 4 3
3 3 2 2 1 2 1 9 10 8 8 11 11 11 10 6 6 5 6 4 3 4 4 4 6 5 9 8 3 4 4 4 3 4 6 7 6 6 6 5 7 7 6 5 4 5 2 2 4
4 5 3 3 2 2 2 7 7 6 6 7 10 8 7 10 10 7 5 6 3 3 5 4 3 5 6 6 2 2 2 1 2 3 3 6 7 7 6 6 4 4 5 5 4 4 5 4 3
6 5 6 7 4 3 1 6 6 4 8 6 9 9 8 7 5 3 2 2 4 3 4 5 5 4 2 5 4 6 6 6 4 4 4 5 6 6 6 5 5 5 4 4 4 4 4 3 5
3 4 6 3 4 3 2 1 10 3 8 9 5 8 7 6 6 5 2 4 3 4 4 4 4 4 5 3 3 5 5 3 2 2 3 3 3 5 4 3 3 4 4 4 4 4 4 4 4
7 7 7 5 4 2 8 7 6 5 8 1 1 2 5 6 6 4 4 4 3 4 5 5 5 5 6 4 3 3 5 5 4 2 2 2 3 3 4 4 1 2 3 3 2 3 4 4 4
2 6 3 3 2 6 2 4 9 9 7 5 6 6 4 5 5 4 4 2 3 4 3 3 4 4 5 5 5 3 4 4 5 4 4 5 3 2 4 4 4 3 4 4 4 3 3 4 3
4 6 6 9 5 4 2 7 8 4 8 3 6 5 5 5 5 4 3 1 1 1 1 2 2 2 4 4 5 5 5 3 3 3 3 3 3 3 3 4 5 5 5 5 4 3 3 4 4
5 5 5 5 3 3 4 7 9 3 4 4 5 4 2 4 5 5 4 3 3 3 2 1 1 2 3 3 3 4 4 4 4 5 5 4 4 3 4 5 5 5 5 5 4 3 4 4 3
4 6 2 2 4 5 5 4 6 3 6 4 5 5 3 4 4 3 4 5 4 4 2 1 1 0 0 1 2 2 3 4 4 4 5 5 4 3 5 5 5 5 5 5 5 3 4 4 3
5 4 4 4 5 4 1 7 7 7 8 9 6 6 6 6 6 6 6 5 5 3 3 3 2 1 2 1 1 2 2 3 4 4 4 4 4 4 4 4 4 4 4 4 4 4 4 4 4
3 5 5 5 5 3 2 7 4 4 9 8 7 7 6 5 5 5 5 5 5 5 5 6 5 5 5 3 2 2 2 2 3 3 3 3 4 3 4 4 4 4 5 4 5 4 4 5 5
Wind_Direction
317 309 112 47 60 66 302 17 88 71 46 344 93 109 122 61 116 187 94 143 134 140 146 145 152 153 142 140 136 130 124 121 119 120 121 119 117 113 105 116 123 114 106 100 98 95 91 78 65
306 315 47 78 85 78 265 282 121 154 165 129 97 97 60 94 103 123 105 150 138 141 145 144 142 145 146 143 141 137 135 135 134 134 131 129 127 118 119 107 93 129 116 106 106 101 98 87 65
303 296 87 100 118 171 181 199 162 153 115 100 93 59 106 149 98 146 140 143 135 135 140 143 140 141 151 151 148 144 143 144 141 139 136 137 140 136 125 120 121 86 113 107 108 108 106 94 63
359 9 34 85 180 220 165 192 174 137 72 72 112 70 20 221 160 151 142 142 139 142 142 149 146 139 149 154 155 155 153 148 148 149 148 147 145 140 139 148 111 116 113 111 117 117 111 95 56
33 59 57 93 297 26 134 184 167 125 133 94 126 137 45 7 124 134 144 144 141 139 143 150 151 148 152 154 156 163 169 162 157 160 149 151 155 154 141 114 136 145 134 131 129 128 118 97 43
25 84 64 187 239 295 193 190 145 141 143 164 81 97 183 135 134 151 145 139 142 143 150 155 156 155 154 155 157 165 181 163 166 168 164 157 159 160 167 165 131 133 153 157 159 148 142 142 335
103 78 198 207 191 201 194 162 148 158 151 188 149 100 160 179 160 147 141 133 141 147 151 157 160 170 173 173 169 166 174 166 174 174 172 171 168 171 176 188 181 177 199 178 175 177 175 224 286
106 96 256 243 190 236 193 128 142 143 166 113 143 167 190 201 160 146 139 141 144 151 153 153 152 157 172 179 179 172 174 176 176 176 174 178 182 191 192 200 213 202 205 215 203 221 192 226 253
77 67 146 310 151 256 220 133 49 89 103 71 11 152 202 152 140 154 141 143 154 165 169 167 167 174 178 184 194 187 183 178 180 179 186 188 189 198 208 208 208 217 218 223 224 237 224 226 242
98 126 191 213 266 251 261 143 146 114 124 38 44 24 115 142 157 162 170 179 179 177 178 173 177 181 180 190 186 193 192 188 187 188 191 191 202 204 205 222 223 222 225 230 234 243 246 232 241
148 182 209 283 296 303 168 140 144 118 253 200 179 160 150 157 171 176 183 187 188 184 180 181 182 183 181 196 177 188 191 190 198 204 198 204 206 221 221 237 240 231 232 229 241 251 246 236 238
161 217 210 329 354 27 87 304 160 169 220 186 171 163 159 168 185 187 186 186 181 187 193 191 184 182 188 183 179 189 188 192 200 211 207 200 215 224 230 230 229 224 216 222 229 235 242 246 243
158 256 115 135 44 58 345 19 277 190 315 81 136 155 174 180 195 206 193 189 182 197 201 197 193 184 185 190 189 189 196 193 200 201 209 199 208 218 215 228 227 229 223 223 236 237 240 243 247
145 274 254 96 82 31 54 291 17 229 133 110 150 177 180 188 196 191 210 206 205 202 208 203 206 201 187 197 189 198 191 199 196 205 213 207 207 206 209 217 222 222 218 225 227 230 237 243 239
51 101 353 201 167 139 137 314 209 201 156 155 181 181 194 211 188 206 208 213 204 209 208 206 209 204 198 200 203 194 196 196 201 211 213 210 207 209 210 217 222 220 218 225 231 246 245 257 252
97 54 83 282 174 180 114 257 285 317 221 195 209 215 212 218 209 216 207 210 207 207 204 201 204 203 207 206 203 197 193 198 207 209 215 222 214 206 209 219 228 217 214 210 211 226 244 246 250
7 181 203 301 205 132 147 243 239 13 95 237 239 244 245 249 239 227 215 210 205 205 204 202 199 201 202 205 199 203 202 211 216 207 211 224 219 213 208 217 228 205 208 211 215 234 214 238 251
182 188 212 211 276 140 176 259 265 287 345 291 279 260 251 257 246 247 250 257 245 216 206 197 194 200 200 198 191 199 211 223 215 219 220 227 227 218 215 224 223 209 207 215 217 230 222 228 234
144 148 191 232 255 195 218 266 277 286 309 279 259 265 252 243 260 268 305 320 282 259 240 214 182 193 169 152 165 196 223 220 222 212 223 223 227 222 216 223 227 215 223 225 223 223 220 235 208
87 124 191 47 43 87 16 278 272 270 252 242 243 239 248 266 266 281 316 325 329 288 277 276 255 222 194 193 189 175 168 210 195 203 224 229 228 225 224 218 228 208 219 218 200 200 222 241 190
164 181 199 158 152 55 27 285 286 281 258 265 251 248 242 242 263 284 270 280 357 19 359 343 292 244 224 209 131 102 101 98 137 210 224 229 219 228 220 227 243 213 201 203 192 194 202 244 240
185 188 156 141 112 216 55 274 294 258 286 253 260 245 253 258 262 207 285 56 33 360 338 342 348 351 258 198 182 187 203 212 201 185 203 231 211 225 229 223 236 231 212 181 198 201 210 196 255
172 153 153 122 95 65 302 114 269 294 278 268 271 246 242 239 176 146 110 65 44 16 3 337 311 350 341 326 240 206 205 219 182 179 205 221 231 233 247 235 275 255 205 207 205 222 212 212 234
152 79 54 59 83 329 218 169 266 227 222 236 141 130 146 142 127 117 92 80 42 23 29 26 43 21 8 350 311 229 209 206 179 187 183 107 83 68 55 81 79 33 58 23 343 284 239 223 232
119 106 34 356 6 230 132 164 242 257 250 214 181 179 165 154 141 142 134 111 68 38 30 56 61 38 20 36 32 349 229 193 194 166 156 141 135 69 43 51 53 62 46 42 33 21 359 342 317
164 148 164 200 199 236 141 233 246 249 235 222 149 166 183 156 147 160 169 153 138 106 60 53 48 54 37 45 39 32 51 86 104 117 118 103 93 97 63 64 54 46 41 43 31 34 26 16 9
197 187 156 99 19 57 230 286 298 178 99 110 128 117 97 144 152 154 169 208 231 247 247 209 117 38 35 54 65 57 63 88 102 90 89 95 95 99 82 74 75 59 57 46 46 47 37 29 12
147 154 99 349 142 231 266 266 241 197 205 152 131 132 125 138 149 185 211 228 243 245 268 307 331 236 10 67 76 79 81 91 100 102 109 109 107 95 95 89 88 81 65 51 53 57 31 38 12
146 183 190 139 163 173 211 257 215 239 179 171 170 165 156 163 189 208 223 230 231 245 245 252 240 228 269 290 28 76 65 73 89 109 116 120 111 110 97 88 86 84 83 65 68 56 37 35 17
179 194 157 147 218 220 150 270 293 217 164 161 184 188 188 172 192 213 227 224 217 229 244 237 219 209 209 211 182 152 104 86 88 97 96 105 118 107 120 119 114 102 86 66 54 48 33 25 7